owner,sensor,date,latitude,longitude,vertical_datum,sea_water_temperature,qcFlag
BP,ioos:station:wmo:42369:2,2022-10-01T00:19:00Z,27.2093,-90.2739,455.6,13.7,11111222
BP,ioos:station:wmo:42369:2,2022-10-01T00:39:00Z,27.2093,-90.2739,454.6,13.7,11111222
BP,ioos:station:wmo:42369:2,2022-10-01T00:59:00Z,27.2093,-90.2740,454.9,13.7,11111222
BP,ioos:station:wmo:42369:2,2022-10-01T01:19:00Z,27.2095,-90.2741,454.3,13.7,11111222
BP,ioos:station:wmo:42369:2,2022-10-01T01:39:00Z,27.2096,-90.2742,454.0,13.7,11111222
BP,ioos:station:wmo:42369:2,2022-10-01T01:59:00Z,27.2097,-90.2743,453.3,13.8,11111222
BP,ioos:station:wmo:42369:2,2022-10-01T02:19:00Z,27.2098,-90.2744,452.7,13.9,11111222
BP,ioos:station:wmo:42369:2,2022-10-01T02:39:00Z,27.2099,-90.2744,452.2,13.7,11111222
BP,ioos:station:wmo:42369:2,2022-10-01T02:59:00Z,27.2100,-90.2745,452.4,13.7,11111222
BP,ioos:station:wmo:42369:2,2022-10-01T03:19:00Z,27.2100,-90.2746,452.9,13.8,11111222
BP,ioos:station:wmo:42369:2,2022-10-01T03:39:00Z,27.2101,-90.2747,452.6,13.8,11111222
BP,ioos:station:wmo:42369:2,2022-10-01T03:59:00Z,27.2102,-90.2747,452.1,13.8,11111222
BP,ioos:station:wmo:42369:2,2022-10-01T04:19:00Z,27.2104,-90.2749,451.5,13.8,11111222
BP,ioos:station:wmo:42369:2,2022-10-01T04:39:00Z,27.2106,-90.2750,451.1,13.7,11111222
BP,ioos:station:wmo:42369:2,2022-10-01T04:59:00Z,27.2106,-90.2750,451.7,13.7,11111222
BP,ioos:station:wmo:42369:2,2022-10-01T05:19:00Z,27.2108,-90.2751,450.6,13.6,11111222
BP,ioos:station:wmo:42369:2,2022-10-01T05:39:00Z,27.2110,-90.2753,450.5,13.5,11111222
BP,ioos:station:wmo:42369:2,2022-10-01T05:59:00Z,27.2111,-90.2753,451.6,13.5,11111222
BP,ioos:station:wmo:42369:2,2022-10-01T06:19:00Z,27.2112,-90.2754,450.8,13.5,11111222
BP,ioos:station:wmo:42369:2,2022-10-01T06:39:00Z,27.2113,-90.2755,450.5,13.5,11111222
BP,ioos:station:wmo:42369:2,2022-10-01T06:59:00Z,27.2113,-90.2754,451.8,13.5,11111222
BP,ioos:station:wmo:42369:2,2022-10-01T07:19:00Z,27.2114,-90.2755,451.6,13.4,11111222
BP,ioos:station:wmo:42369:2,2022-10-01T07:39:00Z,27.2114,-90.2755,451.4,13.4,11111222
BP,ioos:station:wmo:42369:2,2022-10-01T07:59:00Z,27.2115,-90.2755,451.7,13.3,11111222
BP,ioos:station:wmo:42369:2,2022-10-01T08:19:00Z,27.2116,-90.2755,452.1,13.4,11111222
BP,ioos:station:wmo:42369:2,2022-10-01T08:39:00Z,27.2116,-90.2756,451.3,13.5,11111222
BP,ioos:station:wmo:42369:2,2022-10-01T08:59:00Z,27.2117,-90.2756,452.3,13.5,11111222
BP,ioos:station:wmo:42369:2,2022-10-01T09:19:00Z,27.2117,-90.2755,452.4,13.5,11111222
BP,ioos:station:wmo:42369:2,2022-10-01T09:39:00Z,27.2117,-90.2755,452.8,13.5,11111222
BP,ioos:station:wmo:42369:2,2022-10-01T09:59:00Z,27.2118,-90.2755,452.3,13.5,11111222
BP,ioos:station:wmo:42369:2,2022-10-01T10:19:00Z,27.2118,-90.2755,452.9,13.5,11111222
BP,ioos:station:wmo:42369:2,2022-10-01T10:39:00Z,27.2119,-90.2755,454.1,13.5,11111222
BP,ioos:station:wmo:42369:2,2022-10-01T10:59:00Z,27.2119,-90.2755,454.1,13.5,11111222
BP,ioos:station:wmo:42369:2,2022-10-01T11:19:00Z,27.2119,-90.2755,454.9,13.5,11111222
BP,ioos:station:wmo:42369:2,2022-10-01T11:39:00Z,27.2120,-90.2755,455.8,13.5,11111222
BP,ioos:station:wmo:42369:2,2022-10-01T11:59:00Z,27.2120,-90.2754,456.5,13.5,11111222
BP,ioos:station:wmo:42369:2,2022-10-01T12:19:00Z,27.2121,-90.2754,456.1,13.5,11111222
BP,ioos:station:wmo:42369:2,2022-10-01T12:39:00Z,27.2121,-90.2753,456.7,13.4,11111222
BP,ioos:station:wmo:42369:2,2022-10-01T12:59:00Z,27.2121,-90.2753,457.8,13.5,11111222
BP,ioos:station:wmo:42369:2,2022-10-01T13:19:00Z,27.2122,-90.2753,459.3,13.4,11111222
BP,ioos:station:wmo:42369:2,2022-10-01T13:39:00Z,27.2122,-90.2753,458.9,13.3,11111222
BP,ioos:station:wmo:42369:2,2022-10-01T13:59:00Z,27.2122,-90.2753,460.0,13.3,11111222
BP,ioos:station:wmo:42369:2,2022-10-01T14:19:00Z,27.2122,-90.2752,460.7,13.3,11111222
BP,ioos:station:wmo:42369:2,2022-10-01T14:39:00Z,27.2122,-90.2751,462.1,13.3,11111222
BP,ioos:station:wmo:42369:2,2022-10-01T14:59:00Z,27.2123,-90.2751,461.7,13.3,11111222
BP,ioos:station:wmo:42369:2,2022-10-01T15:19:00Z,27.2122,-90.2751,462.6,13.3,11111222
BP,ioos:station:wmo:42369:2,2022-10-01T15:39:00Z,27.2122,-90.2750,462.7,13.3,11111222
BP,ioos:station:wmo:42369:2,2022-10-01T15:59:00Z,27.2122,-90.2750,462.3,13.3,11111222
BP,ioos:station:wmo:42369:2,2022-10-01T16:19:00Z,27.2122,-90.2750,463.3,13.3,11111222
BP,ioos:station:wmo:42369:2,2022-10-01T16:39:00Z,27.2122,-90.2750,463.4,13.3,11111222
BP,ioos:station:wmo:42369:2,2022-10-01T16:59:00Z,27.2122,-90.2749,463.8,13.4,11111222
BP,ioos:station:wmo:42369:2,2022-10-01T17:19:00Z,27.2121,-90.2749,464.3,13.4,11111222
BP,ioos:station:wmo:42369:2,2022-10-01T17:39:00Z,27.2121,-90.2749,463.7,13.5,11111222
BP,ioos:station:wmo:42369:2,2022-10-01T17:59:00Z,27.2121,-90.2748,463.7,13.4,11111222
BP,ioos:station:wmo:42369:2,2022-10-01T18:19:00Z,27.2120,-90.2748,463.4,13.4,11111222
BP,ioos:station:wmo:42369:2,2022-10-01T18:39:00Z,27.2120,-90.2748,463.2,13.4,11111222
BP,ioos:station:wmo:42369:2,2022-10-01T18:59:00Z,27.2120,-90.2747,464.1,13.3,11111222
BP,ioos:station:wmo:42369:2,2022-10-01T19:19:00Z,27.2118,-90.2747,463.4,13.2,11111222
BP,ioos:station:wmo:42369:2,2022-10-01T19:39:00Z,27.2118,-90.2746,463.4,13.2,11111222
BP,ioos:station:wmo:42369:2,2022-10-01T19:59:00Z,27.2117,-90.2746,462.9,13.1,11111222
BP,ioos:station:wmo:42369:2,2022-10-01T20:19:00Z,27.2117,-90.2745,463.1,13.1,11111222
BP,ioos:station:wmo:42369:2,2022-10-01T20:39:00Z,27.2116,-90.2745,463.6,13.2,11111222
BP,ioos:station:wmo:42369:2,2022-10-01T20:59:00Z,27.2116,-90.2745,463.4,13.1,11111222
BP,ioos:station:wmo:42369:2,2022-10-01T21:19:00Z,27.2115,-90.2745,463.1,13.1,11111222
BP,ioos:station:wmo:42369:2,2022-10-01T21:39:00Z,27.2114,-90.2744,462.9,13.0,11111222
BP,ioos:station:wmo:42369:2,2022-10-01T21:59:00Z,27.2114,-90.2743,463.1,13.0,11111222
BP,ioos:station:wmo:42369:2,2022-10-01T22:19:00Z,27.2114,-90.2743,463.2,12.9,11111222
BP,ioos:station:wmo:42369:2,2022-10-01T22:39:00Z,27.2114,-90.2743,463.2,13.0,11111222
BP,ioos:station:wmo:42369:2,2022-10-01T22:59:00Z,27.2114,-90.2743,463.0,13.0,11111222
BP,ioos:station:wmo:42369:2,2022-10-01T23:19:00Z,27.2114,-90.2743,463.6,13.1,11111222
BP,ioos:station:wmo:42369:2,2022-10-01T23:39:00Z,27.2114,-90.2743,464.5,13.1,11111222
BP,ioos:station:wmo:42369:2,2022-10-01T23:59:00Z,27.2114,-90.2743,464.7,13.1,11111222
BP,ioos:station:wmo:42369:2,2022-10-02T00:19:00Z,27.2113,-90.2742,464.3,13.2,11111222
BP,ioos:station:wmo:42369:2,2022-10-02T00:39:00Z,27.2114,-90.2742,463.8,13.1,11111222
BP,ioos:station:wmo:42369:2,2022-10-02T00:59:00Z,27.2114,-90.2743,464.1,13.1,11111222
BP,ioos:station:wmo:42369:2,2022-10-02T01:19:00Z,27.2114,-90.2743,463.6,13.0,11111222
BP,ioos:station:wmo:42369:2,2022-10-02T01:39:00Z,27.2114,-90.2743,464.2,13.1,11111222
BP,ioos:station:wmo:42369:2,2022-10-02T01:59:00Z,27.2114,-90.2743,463.9,13.2,11111222
BP,ioos:station:wmo:42369:2,2022-10-02T02:19:00Z,27.2114,-90.2743,464.2,13.4,11111222
BP,ioos:station:wmo:42369:2,2022-10-02T02:39:00Z,27.2114,-90.2743,463.3,13.3,11111222
BP,ioos:station:wmo:42369:2,2022-10-02T02:59:00Z,27.2115,-90.2743,463.8,13.2,11111222
BP,ioos:station:wmo:42369:2,2022-10-02T03:19:00Z,27.2115,-90.2743,464.0,13.2,11111222
BP,ioos:station:wmo:42369:2,2022-10-02T03:39:00Z,27.2115,-90.2744,464.1,13.2,11111222
BP,ioos:station:wmo:42369:2,2022-10-02T03:59:00Z,27.2115,-90.2745,463.1,13.1,11111222
BP,ioos:station:wmo:42369:2,2022-10-02T04:19:00Z,27.2115,-90.2745,463.4,13.0,11111222
BP,ioos:station:wmo:42369:2,2022-10-02T04:39:00Z,27.2115,-90.2745,463.0,13.1,11111222
BP,ioos:station:wmo:42369:2,2022-10-02T04:59:00Z,27.2115,-90.2745,462.2,13.1,11111222
BP,ioos:station:wmo:42369:2,2022-10-02T05:19:00Z,27.2115,-90.2745,462.4,13.1,11111222
BP,ioos:station:wmo:42369:2,2022-10-02T05:39:00Z,27.2115,-90.2746,462.6,13.0,11111222
BP,ioos:station:wmo:42369:2,2022-10-02T05:59:00Z,27.2115,-90.2746,461.3,13.0,11111222
BP,ioos:station:wmo:42369:2,2022-10-02T06:19:00Z,27.2116,-90.2747,461.2,13.0,11111222
BP,ioos:station:wmo:42369:2,2022-10-02T06:39:00Z,27.2116,-90.2747,461.1,13.0,11111222
BP,ioos:station:wmo:42369:2,2022-10-02T06:59:00Z,27.2116,-90.2747,460.5,13.0,11111222
BP,ioos:station:wmo:42369:2,2022-10-02T07:19:00Z,27.2116,-90.2747,460.4,13.0,11111222
BP,ioos:station:wmo:42369:2,2022-10-02T07:39:00Z,27.2116,-90.2748,459.7,13.0,11111222
BP,ioos:station:wmo:42369:2,2022-10-02T07:59:00Z,27.2116,-90.2748,460.4,12.9,11111222
BP,ioos:station:wmo:42369:2,2022-10-02T08:19:00Z,27.2116,-90.2748,460.4,12.9,11111222
BP,ioos:station:wmo:42369:2,2022-10-02T08:39:00Z,27.2116,-90.2748,459.7,12.9,11111222
BP,ioos:station:wmo:42369:2,2022-10-02T08:59:00Z,27.2116,-90.2748,460.4,12.8,11111222
BP,ioos:station:wmo:42369:2,2022-10-02T09:19:00Z,27.2117,-90.2747,460.9,12.8,11111222
BP,ioos:station:wmo:42369:2,2022-10-02T09:39:00Z,27.2117,-90.2747,461.2,12.8,11111222
BP,ioos:station:wmo:42369:2,2022-10-02T09:59:00Z,27.2117,-90.2747,461.8,12.8,11111222
BP,ioos:station:wmo:42369:2,2022-10-02T10:19:00Z,27.2117,-90.2747,462.1,12.7,11111222
BP,ioos:station:wmo:42369:2,2022-10-02T10:39:00Z,27.2116,-90.2747,461.2,12.8,11111222
BP,ioos:station:wmo:42369:2,2022-10-02T10:59:00Z,27.2116,-90.2748,460.4,12.9,11111222
BP,ioos:station:wmo:42369:2,2022-10-02T11:19:00Z,27.2116,-90.2748,460.7,13.0,11111222
BP,ioos:station:wmo:42369:2,2022-10-02T11:39:00Z,27.2116,-90.2748,460.1,12.9,11111222
BP,ioos:station:wmo:42369:2,2022-10-02T11:59:00Z,27.2116,-90.2748,460.6,12.9,11111222
BP,ioos:station:wmo:42369:2,2022-10-02T12:19:00Z,27.2116,-90.2747,461.1,12.9,11111222
BP,ioos:station:wmo:42369:2,2022-10-02T12:39:00Z,27.2116,-90.2747,461.8,12.9,11111222
BP,ioos:station:wmo:42369:2,2022-10-02T12:59:00Z,27.2116,-90.2747,461.9,13.0,11111222
BP,ioos:station:wmo:42369:2,2022-10-02T13:19:00Z,27.2116,-90.2747,462.2,12.9,11111222
BP,ioos:station:wmo:42369:2,2022-10-02T13:39:00Z,27.2117,-90.2747,462.6,13.0,11111222
BP,ioos:station:wmo:42369:2,2022-10-02T13:59:00Z,27.2117,-90.2747,463.3,13.1,11111222
BP,ioos:station:wmo:42369:2,2022-10-02T14:19:00Z,27.2117,-90.2746,464.6,13.0,11111222
BP,ioos:station:wmo:42369:2,2022-10-02T14:39:00Z,27.2118,-90.2746,464.8,12.9,11111222
BP,ioos:station:wmo:42369:2,2022-10-02T14:59:00Z,27.2117,-90.2746,465.1,12.8,11111222
BP,ioos:station:wmo:42369:2,2022-10-02T15:19:00Z,27.2117,-90.2745,465.6,12.8,11111222
BP,ioos:station:wmo:42369:2,2022-10-02T15:39:00Z,27.2117,-90.2745,466.1,12.8,11111222
BP,ioos:station:wmo:42369:2,2022-10-02T15:59:00Z,27.2118,-90.2745,466.1,12.8,11111222
BP,ioos:station:wmo:42369:2,2022-10-02T16:19:00Z,27.2118,-90.2745,467.5,12.8,11111222
BP,ioos:station:wmo:42369:2,2022-10-02T16:39:00Z,27.2118,-90.2745,467.5,12.9,11111222
BP,ioos:station:wmo:42369:2,2022-10-02T16:59:00Z,27.2118,-90.2744,467.7,12.8,11111222
BP,ioos:station:wmo:42369:2,2022-10-02T17:19:00Z,27.2117,-90.2744,467.7,12.7,11111222
BP,ioos:station:wmo:42369:2,2022-10-02T17:39:00Z,27.2117,-90.2744,467.2,12.8,11111222
BP,ioos:station:wmo:42369:2,2022-10-02T17:59:00Z,27.2117,-90.2744,467.4,12.9,11111222
BP,ioos:station:wmo:42369:2,2022-10-02T18:19:00Z,27.2116,-90.2744,467.0,12.8,11111222
BP,ioos:station:wmo:42369:2,2022-10-02T18:39:00Z,27.2116,-90.2744,467.5,12.8,11111222
BP,ioos:station:wmo:42369:2,2022-10-02T18:59:00Z,27.2116,-90.2744,468.1,12.8,11111222
BP,ioos:station:wmo:42369:2,2022-10-02T19:19:00Z,27.2116,-90.2744,467.4,12.7,11111222
BP,ioos:station:wmo:42369:2,2022-10-02T19:39:00Z,27.2116,-90.2743,468.7,12.7,11111222
BP,ioos:station:wmo:42369:2,2022-10-02T19:59:00Z,27.2115,-90.2743,467.5,12.8,11111222
BP,ioos:station:wmo:42369:2,2022-10-02T20:19:00Z,27.2115,-90.2742,469.1,12.8,11111222
BP,ioos:station:wmo:42369:2,2022-10-02T20:39:00Z,27.2115,-90.2742,468.5,12.8,11111222
BP,ioos:station:wmo:42369:2,2022-10-02T20:59:00Z,27.2115,-90.2742,468.6,12.7,11111222
BP,ioos:station:wmo:42369:2,2022-10-02T21:19:00Z,27.2115,-90.2742,468.4,12.6,11111222
BP,ioos:station:wmo:42369:2,2022-10-02T21:39:00Z,27.2113,-90.2741,468.9,12.6,11111222
BP,ioos:station:wmo:42369:2,2022-10-02T21:59:00Z,27.2113,-90.2740,468.9,12.7,11111222
BP,ioos:station:wmo:42369:2,2022-10-02T22:19:00Z,27.2112,-90.2740,469.1,12.6,11111222
BP,ioos:station:wmo:42369:2,2022-10-02T22:39:00Z,27.2111,-90.2739,469.1,12.6,11111222
BP,ioos:station:wmo:42369:2,2022-10-02T22:59:00Z,27.2110,-90.2739,468.9,12.6,11111222
BP,ioos:station:wmo:42369:2,2022-10-02T23:19:00Z,27.2110,-90.2739,468.3,12.6,11111222
BP,ioos:station:wmo:42369:2,2022-10-02T23:39:00Z,27.2109,-90.2738,467.9,12.6,11111222
BP,ioos:station:wmo:42369:2,2022-10-02T23:59:00Z,27.2109,-90.2738,468.0,12.6,11111222
BP,ioos:station:wmo:42369:2,2022-10-03T00:19:00Z,27.2108,-90.2738,467.2,12.6,11111222
BP,ioos:station:wmo:42369:2,2022-10-03T00:39:00Z,27.2107,-90.2738,467.5,12.6,11111222
BP,ioos:station:wmo:42369:2,2022-10-03T00:59:00Z,27.2106,-90.2737,467.1,12.6,11111222
BP,ioos:station:wmo:42369:2,2022-10-03T01:19:00Z,27.2106,-90.2737,467.6,12.6,11111222
BP,ioos:station:wmo:42369:2,2022-10-03T01:39:00Z,27.2105,-90.2737,467.5,12.6,11111222
BP,ioos:station:wmo:42369:2,2022-10-03T01:59:00Z,27.2105,-90.2737,467.8,12.6,11111222
BP,ioos:station:wmo:42369:2,2022-10-03T02:19:00Z,27.2104,-90.2737,468.0,12.6,11111222
BP,ioos:station:wmo:42369:2,2022-10-03T02:39:00Z,27.2104,-90.2737,467.2,12.6,11111222
BP,ioos:station:wmo:42369:2,2022-10-03T02:59:00Z,27.2104,-90.2737,467.3,12.6,11111222
BP,ioos:station:wmo:42369:2,2022-10-03T03:19:00Z,27.2104,-90.2737,467.5,12.6,11111222
BP,ioos:station:wmo:42369:2,2022-10-03T03:39:00Z,27.2104,-90.2737,466.1,12.6,11111222
BP,ioos:station:wmo:42369:2,2022-10-03T03:59:00Z,27.2103,-90.2737,465.8,12.5,11111222
BP,ioos:station:wmo:42369:2,2022-10-03T04:19:00Z,27.2103,-90.2738,464.5,12.5,11111222
BP,ioos:station:wmo:42369:2,2022-10-03T04:39:00Z,27.2103,-90.2738,465.7,12.5,11111222
BP,ioos:station:wmo:42369:2,2022-10-03T04:59:00Z,27.2104,-90.2738,465.6,12.5,11111222
BP,ioos:station:wmo:42369:2,2022-10-03T05:19:00Z,27.2103,-90.2738,466.2,12.5,11111222
BP,ioos:station:wmo:42369:2,2022-10-03T05:39:00Z,27.2104,-90.2738,466.0,12.5,11111222
BP,ioos:station:wmo:42369:2,2022-10-03T05:59:00Z,27.2104,-90.2738,465.9,12.4,11111222
BP,ioos:station:wmo:42369:2,2022-10-03T06:19:00Z,27.2104,-90.2738,466.4,12.4,11111222
BP,ioos:station:wmo:42369:2,2022-10-03T06:39:00Z,27.2104,-90.2738,465.8,12.3,11111222
BP,ioos:station:wmo:42369:2,2022-10-03T06:59:00Z,27.2105,-90.2738,466.0,12.3,11111222
BP,ioos:station:wmo:42369:2,2022-10-03T07:19:00Z,27.2105,-90.2738,465.8,12.3,11111222
BP,ioos:station:wmo:42369:2,2022-10-03T07:39:00Z,27.2106,-90.2739,465.8,12.3,11111222
BP,ioos:station:wmo:42369:2,2022-10-03T07:59:00Z,27.2106,-90.2739,466.1,12.2,11111222
BP,ioos:station:wmo:42369:2,2022-10-03T08:19:00Z,27.2105,-90.2738,466.7,12.2,11111222
BP,ioos:station:wmo:42369:2,2022-10-03T08:39:00Z,27.2105,-90.2738,466.5,12.2,11111222
BP,ioos:station:wmo:42369:2,2022-10-03T08:59:00Z,27.2105,-90.2738,466.7,12.2,11111222
BP,ioos:station:wmo:42369:2,2022-10-03T09:19:00Z,27.2105,-90.2738,466.9,12.2,11111222
BP,ioos:station:wmo:42369:2,2022-10-03T09:39:00Z,27.2105,-90.2738,467.3,12.2,11111222
BP,ioos:station:wmo:42369:2,2022-10-03T09:59:00Z,27.2105,-90.2738,467.5,12.2,11111222
BP,ioos:station:wmo:42369:2,2022-10-03T10:19:00Z,27.2105,-90.2737,467.5,12.1,11111222
BP,ioos:station:wmo:42369:2,2022-10-03T10:39:00Z,27.2105,-90.2737,467.4,12.1,11111222
BP,ioos:station:wmo:42369:2,2022-10-03T10:59:00Z,27.2105,-90.2737,467.3,12.2,11111222
BP,ioos:station:wmo:42369:2,2022-10-03T11:19:00Z,27.2105,-90.2738,467.8,12.2,11111222
BP,ioos:station:wmo:42369:2,2022-10-03T11:39:00Z,27.2105,-90.2737,468.1,12.4,11111222
BP,ioos:station:wmo:42369:2,2022-10-03T11:59:00Z,27.2106,-90.2738,468.3,12.4,11111222
BP,ioos:station:wmo:42369:2,2022-10-03T12:19:00Z,27.2106,-90.2737,468.8,12.3,11111222
BP,ioos:station:wmo:42369:2,2022-10-03T12:39:00Z,27.2106,-90.2737,468.4,12.3,11111222
BP,ioos:station:wmo:42369:2,2022-10-03T12:59:00Z,27.2106,-90.2737,468.7,12.4,11111222
BP,ioos:station:wmo:42369:2,2022-10-03T13:19:00Z,27.2106,-90.2737,468.7,12.3,11111222
BP,ioos:station:wmo:42369:2,2022-10-03T13:39:00Z,27.2106,-90.2737,468.7,12.1,11111222
BP,ioos:station:wmo:42369:2,2022-10-03T13:59:00Z,27.2107,-90.2737,469.0,12.2,11111222
BP,ioos:station:wmo:42369:2,2022-10-03T14:19:00Z,27.2107,-90.2738,469.1,12.3,11111222
BP,ioos:station:wmo:42369:2,2022-10-03T14:39:00Z,27.2107,-90.2738,469.5,12.4,11111222
BP,ioos:station:wmo:42369:2,2022-10-03T14:59:00Z,27.2107,-90.2738,469.1,12.5,11111222
BP,ioos:station:wmo:42369:2,2022-10-03T15:19:00Z,27.2108,-90.2738,469.8,12.5,11111222
BP,ioos:station:wmo:42369:2,2022-10-03T15:39:00Z,27.2108,-90.2738,469.6,12.5,11111222
BP,ioos:station:wmo:42369:2,2022-10-03T15:59:00Z,27.2108,-90.2738,469.2,12.4,11111222
BP,ioos:station:wmo:42369:2,2022-10-03T16:19:00Z,27.2108,-90.2738,470.0,12.4,11111222
BP,ioos:station:wmo:42369:2,2022-10-03T16:39:00Z,27.2108,-90.2738,470.0,12.4,11111222
BP,ioos:station:wmo:42369:2,2022-10-03T16:59:00Z,27.2108,-90.2738,469.6,12.4,11111222
BP,ioos:station:wmo:42369:2,2022-10-03T17:19:00Z,27.2108,-90.2738,468.8,12.3,11111222
BP,ioos:station:wmo:42369:2,2022-10-03T17:39:00Z,27.2108,-90.2738,469.8,12.2,11111222
BP,ioos:station:wmo:42369:2,2022-10-03T17:59:00Z,27.2108,-90.2738,470.2,12.2,11111222
BP,ioos:station:wmo:42369:2,2022-10-03T18:19:00Z,27.2108,-90.2737,472.1,12.2,11111222
BP,ioos:station:wmo:42369:2,2022-10-03T18:39:00Z,27.2107,-90.2736,472.2,12.1,11111222
BP,ioos:station:wmo:42369:2,2022-10-03T18:59:00Z,27.2107,-90.2736,472.3,12.1,11111222
BP,ioos:station:wmo:42369:2,2022-10-03T19:19:00Z,27.2106,-90.2735,472.6,12.1,11111222
BP,ioos:station:wmo:42369:2,2022-10-03T19:39:00Z,27.2105,-90.2735,472.9,12.0,11111222
BP,ioos:station:wmo:42369:2,2022-10-03T19:59:00Z,27.2104,-90.2735,472.4,11.9,11111222
BP,ioos:station:wmo:42369:2,2022-10-03T20:19:00Z,27.2103,-90.2735,471.3,11.9,11111222
BP,ioos:station:wmo:42369:2,2022-10-03T20:39:00Z,27.2102,-90.2735,470.7,11.8,11111222
BP,ioos:station:wmo:42369:2,2022-10-03T20:59:00Z,27.2102,-90.2735,470.6,11.9,11111222
BP,ioos:station:wmo:42369:2,2022-10-03T21:19:00Z,27.2101,-90.2734,471.8,11.9,11111222
BP,ioos:station:wmo:42369:2,2022-10-03T21:39:00Z,27.2101,-90.2734,472.8,11.9,11111222
BP,ioos:station:wmo:42369:2,2022-10-03T21:59:00Z,27.2101,-90.2733,471.8,11.9,11111222
BP,ioos:station:wmo:42369:2,2022-10-03T22:19:00Z,27.2100,-90.2733,472.3,11.9,11111222
BP,ioos:station:wmo:42369:2,2022-10-03T22:39:00Z,27.2099,-90.2733,472.6,11.9,11111222
BP,ioos:station:wmo:42369:2,2022-10-03T22:59:00Z,27.2098,-90.2733,471.3,12.0,11111222
BP,ioos:station:wmo:42369:2,2022-10-03T23:19:00Z,27.2098,-90.2733,471.5,12.0,11111222
BP,ioos:station:wmo:42369:2,2022-10-03T23:39:00Z,27.2097,-90.2732,470.9,12.0,11111222
BP,ioos:station:wmo:42369:2,2022-10-03T23:59:00Z,27.2096,-90.2732,470.8,11.9,11111222
BP,ioos:station:wmo:42369:2,2022-10-04T00:19:00Z,27.2095,-90.2732,471.0,11.9,11111222
BP,ioos:station:wmo:42369:2,2022-10-04T00:39:00Z,27.2093,-90.2732,470.7,11.9,11111222
BP,ioos:station:wmo:42369:2,2022-10-04T00:59:00Z,27.2092,-90.2731,470.5,11.9,11111222
BP,ioos:station:wmo:42369:2,2022-10-04T01:19:00Z,27.2091,-90.2731,470.1,12.0,11111222
BP,ioos:station:wmo:42369:2,2022-10-04T01:39:00Z,27.2092,-90.2731,471.0,12.0,11111222
BP,ioos:station:wmo:42369:2,2022-10-04T01:59:00Z,27.2092,-90.2731,470.8,12.0,11111222
BP,ioos:station:wmo:42369:2,2022-10-04T02:19:00Z,27.2092,-90.2731,470.4,12.0,11111222
BP,ioos:station:wmo:42369:2,2022-10-04T02:39:00Z,27.2092,-90.2732,470.3,12.1,11111222
BP,ioos:station:wmo:42369:2,2022-10-04T02:59:00Z,27.2091,-90.2732,469.6,12.2,11111222
BP,ioos:station:wmo:42369:2,2022-10-04T03:19:00Z,27.2091,-90.2732,469.6,12.2,11111222
BP,ioos:station:wmo:42369:2,2022-10-04T03:39:00Z,27.2091,-90.2732,469.0,12.0,11111222
BP,ioos:station:wmo:42369:2,2022-10-04T03:59:00Z,27.2091,-90.2733,469.1,12.2,11111222
BP,ioos:station:wmo:42369:2,2022-10-04T04:19:00Z,27.2092,-90.2733,468.8,12.2,11111222
BP,ioos:station:wmo:42369:2,2022-10-04T04:39:00Z,27.2092,-90.2733,467.8,12.1,11111222
BP,ioos:station:wmo:42369:2,2022-10-04T04:59:00Z,27.2092,-90.2733,468.0,12.1,11111222
BP,ioos:station:wmo:42369:2,2022-10-04T05:19:00Z,27.2092,-90.2733,467.9,12.1,11111222
BP,ioos:station:wmo:42369:2,2022-10-04T05:39:00Z,27.2091,-90.2733,467.6,12.1,11111222
BP,ioos:station:wmo:42369:2,2022-10-04T05:59:00Z,27.2091,-90.2733,467.2,12.2,11111222
BP,ioos:station:wmo:42369:2,2022-10-04T06:19:00Z,27.2092,-90.2734,467.2,12.2,11111222
BP,ioos:station:wmo:42369:2,2022-10-04T06:39:00Z,27.2092,-90.2734,466.8,12.2,11111222
BP,ioos:station:wmo:42369:2,2022-10-04T06:59:00Z,27.2092,-90.2734,466.3,12.1,11111222
BP,ioos:station:wmo:42369:2,2022-10-04T07:19:00Z,27.2093,-90.2734,466.8,12.1,11111222
BP,ioos:station:wmo:42369:2,2022-10-04T07:39:00Z,27.2093,-90.2734,466.7,12.2,11111222
BP,ioos:station:wmo:42369:2,2022-10-04T07:59:00Z,27.2093,-90.2734,466.5,12.0,11111222
BP,ioos:station:wmo:42369:2,2022-10-04T08:19:00Z,27.2093,-90.2734,465.8,11.9,11111222
BP,ioos:station:wmo:42369:2,2022-10-04T08:39:00Z,27.2094,-90.2734,466.7,11.9,11111222
BP,ioos:station:wmo:42369:2,2022-10-04T08:59:00Z,27.2094,-90.2734,466.5,11.9,11111222
BP,ioos:station:wmo:42369:2,2022-10-04T09:19:00Z,27.2094,-90.2734,466.2,11.9,11111222
BP,ioos:station:wmo:42369:2,2022-10-04T09:39:00Z,27.2094,-90.2734,467.1,11.9,11111222
BP,ioos:station:wmo:42369:2,2022-10-04T09:59:00Z,27.2094,-90.2734,467.2,12.0,11111222
BP,ioos:station:wmo:42369:2,2022-10-04T10:19:00Z,27.2094,-90.2734,466.0,12.0,11111222
BP,ioos:station:wmo:42369:2,2022-10-04T10:39:00Z,27.2094,-90.2734,466.6,11.9,11111222
BP,ioos:station:wmo:42369:2,2022-10-04T10:59:00Z,27.2094,-90.2734,465.5,11.9,11111222
BP,ioos:station:wmo:42369:2,2022-10-04T11:19:00Z,27.2094,-90.2734,467.1,11.9,11111222
BP,ioos:station:wmo:42369:2,2022-10-04T11:39:00Z,27.2094,-90.2734,467.3,11.8,11111222
BP,ioos:station:wmo:42369:2,2022-10-04T11:59:00Z,27.2094,-90.2734,467.3,11.8,11111222
BP,ioos:station:wmo:42369:2,2022-10-04T12:19:00Z,27.2094,-90.2734,467.1,11.8,11111222
BP,ioos:station:wmo:42369:2,2022-10-04T12:39:00Z,27.2094,-90.2734,467.5,11.9,11111222
BP,ioos:station:wmo:42369:2,2022-10-04T12:59:00Z,27.2094,-90.2733,466.7,11.8,11111222
BP,ioos:station:wmo:42369:2,2022-10-04T13:19:00Z,27.2094,-90.2733,468.0,11.9,11111222
BP,ioos:station:wmo:42369:2,2022-10-04T13:39:00Z,27.2094,-90.2733,468.5,11.9,11111222
BP,ioos:station:wmo:42369:2,2022-10-04T13:59:00Z,27.2095,-90.2733,469.2,11.9,11111222
BP,ioos:station:wmo:42369:2,2022-10-04T14:19:00Z,27.2095,-90.2733,469.1,12.0,11111222
BP,ioos:station:wmo:42369:2,2022-10-04T14:39:00Z,27.2096,-90.2733,469.6,12.0,11111222
BP,ioos:station:wmo:42369:2,2022-10-04T14:59:00Z,27.2096,-90.2733,470.2,12.0,11111222
BP,ioos:station:wmo:42369:2,2022-10-04T15:19:00Z,27.2096,-90.2732,470.0,12.0,11111222
BP,ioos:station:wmo:42369:2,2022-10-04T15:39:00Z,27.2096,-90.2732,470.4,11.8,11111222
BP,ioos:station:wmo:42369:2,2022-10-04T15:59:00Z,27.2096,-90.2732,470.8,11.9,11111222
BP,ioos:station:wmo:42369:2,2022-10-04T16:19:00Z,27.2096,-90.2732,470.9,11.9,11111222
BP,ioos:station:wmo:42369:2,2022-10-04T16:39:00Z,27.2095,-90.2732,471.4,11.9,11111222
BP,ioos:station:wmo:42369:2,2022-10-04T16:59:00Z,27.2095,-90.2732,471.5,11.9,11111222
BP,ioos:station:wmo:42369:2,2022-10-04T17:19:00Z,27.2095,-90.2732,471.5,11.9,11111222
BP,ioos:station:wmo:42369:2,2022-10-04T17:39:00Z,27.2094,-90.2731,471.9,11.9,11111222
BP,ioos:station:wmo:42369:2,2022-10-04T17:59:00Z,27.2094,-90.2731,471.9,11.8,11111222
BP,ioos:station:wmo:42369:2,2022-10-04T18:19:00Z,27.2094,-90.2731,472.1,11.8,11111222
BP,ioos:station:wmo:42369:2,2022-10-04T18:39:00Z,27.2094,-90.2731,472.2,11.7,11111222
BP,ioos:station:wmo:42369:2,2022-10-04T18:59:00Z,27.2094,-90.2731,472.3,11.7,11111222
BP,ioos:station:wmo:42369:2,2022-10-04T19:19:00Z,27.2093,-90.2731,471.9,11.7,11111222